Year,Month,Day,Hour,Minute,Value (Times are PST for temperature in C)
2013,07,01,00,00,20.30
2013,07,01,00,01,20.30
2013,07,01,00,02,20.30
2013,07,01,00,03,20.30
2013,07,01,00,04,20.30
2013,07,01,00,05,20.20
2013,07,01,00,06,20.20
2013,07,01,00,07,20.20
2013,07,01,00,08,20.20
2013,07,01,00,09,20.20
2013,07,01,00,10,20.20
2013,07,01,00,11,20.20
2013,07,01,00,12,20.20
2013,07,01,00,13,20.10
2013,07,01,00,14,20.10
2013,07,01,00,15,20.10
2013,07,01,00,16,20.10
2013,07,01,00,17,20.00
2013,07,01,00,18,20.00
2013,07,01,00,19,20.00
2013,07,01,00,20,19.90
2013,07,01,00,21,19.90
2013,07,01,00,22,19.90
2013,07,01,00,23,19.90
2013,07,01,00,24,19.90
2013,07,01,00,25,19.90
2013,07,01,00,26,19.80
2013,07,01,00,27,19.80
2013,07,01,00,28,19.80
2013,07,01,00,29,19.80
2013,07,01,00,30,19.80
2013,07,01,00,31,19.80
2013,07,01,00,32,19.70
2013,07,01,00,33,19.70
2013,07,01,00,34,19.70
2013,07,01,00,35,19.70
2013,07,01,00,36,19.80
2013,07,01,00,37,19.80
2013,07,01,00,38,19.80
2013,07,01,00,39,19.80
2013,07,01,00,40,19.80
2013,07,01,00,41,19.80
2013,07,01,00,42,19.80
2013,07,01,00,43,19.80
2013,07,01,00,44,19.80
2013,07,01,00,45,19.80
2013,07,01,00,46,19.70
2013,07,01,00,47,19.70
2013,07,01,00,48,19.70
2013,07,01,00,49,19.70
2013,07,01,00,50,19.70
2013,07,01,00,51,19.70
2013,07,01,00,52,19.60
2013,07,01,00,53,19.60
2013,07,01,00,54,19.60
2013,07,01,00,55,19.50
2013,07,01,00,56,19.50
2013,07,01,00,57,19.50
2013,07,01,00,58,19.40
2013,07,01,00,59,19.40
2013,07,01,01,00,19.40
2013,07,01,01,01,19.40
2013,07,01,01,02,19.40
2013,07,01,01,03,19.40
2013,07,01,01,04,19.50
2013,07,01,01,05,19.50
2013,07,01,01,06,19.50
2013,07,01,01,07,19.60
2013,07,01,01,08,19.60
2013,07,01,01,09,19.60
2013,07,01,01,10,19.70
2013,07,01,01,11,19.70
2013,07,01,01,12,19.70
2013,07,01,01,13,19.70
2013,07,01,01,14,19.70
2013,07,01,01,15,19.60
2013,07,01,01,16,19.60
2013,07,01,01,17,19.60
2013,07,01,01,18,19.60
2013,07,01,01,19,19.50
2013,07,01,01,20,19.50
2013,07,01,01,21,19.40
2013,07,01,01,22,19.40
2013,07,01,01,23,19.40
2013,07,01,01,24,19.30
2013,07,01,01,25,19.30
2013,07,01,01,26,19.30
2013,07,01,01,27,19.20
2013,07,01,01,28,19.20
2013,07,01,01,29,19.20
2013,07,01,01,30,19.20
2013,07,01,01,31,19.10
2013,07,01,01,32,19.10
2013,07,01,01,33,19.10
2013,07,01,01,34,19.10
2013,07,01,01,35,19.10
2013,07,01,01,36,19.10
2013,07,01,01,37,19.00
2013,07,01,01,38,19.00
2013,07,01,01,39,19.00
2013,07,01,01,40,18.90
2013,07,01,01,41,18.90
2013,07,01,01,42,18.90
2013,07,01,01,43,18.80
2013,07,01,01,44,18.80
2013,07,01,01,45,18.80
2013,07,01,01,46,18.80
2013,07,01,01,47,18.80
2013,07,01,01,48,18.80
2013,07,01,01,49,18.70
2013,07,01,01,50,18.70
2013,07,01,01,51,18.70
2013,07,01,01,52,18.70
2013,07,01,01,53,18.70
2013,07,01,01,54,18.70
2013,07,01,01,55,18.70
2013,07,01,01,56,18.60
2013,07,01,01,57,18.60
2013,07,01,01,58,18.60
2013,07,01,01,59,18.60
2013,07,01,02,00,18.60
2013,07,01,02,01,18.60
2013,07,01,02,02,18.50
2013,07,01,02,03,18.50
2013,07,01,02,04,18.50
2013,07,01,02,05,18.50
2013,07,01,02,06,18.40
2013,07,01,02,07,18.40
2013,07,01,02,08,18.40
2013,07,01,02,09,18.40
2013,07,01,02,10,18.40
2013,07,01,02,11,18.30
2013,07,01,02,12,18.30
2013,07,01,02,13,18.30
2013,07,01,02,14,18.30
2013,07,01,02,15,18.20
2013,07,01,02,16,18.20
2013,07,01,02,17,18.20
2013,07,01,02,18,18.20
2013,07,01,02,19,18.20
2013,07,01,02,20,18.20
2013,07,01,02,21,18.20
2013,07,01,02,22,18.10
2013,07,01,02,23,18.10
2013,07,01,02,24,18.10
2013,07,01,02,25,18.10
2013,07,01,02,26,18.10
2013,07,01,02,27,18.10
2013,07,01,02,28,18.10
2013,07,01,02,29,18.00
2013,07,01,02,30,18.00
2013,07,01,02,31,18.00
2013,07,01,02,32,18.00
2013,07,01,02,33,18.00
2013,07,01,02,34,18.00
2013,07,01,02,35,18.00
2013,07,01,02,36,18.00
2013,07,01,02,37,18.00
2013,07,01,02,38,18.00
2013,07,01,02,39,17.90
2013,07,01,02,40,17.90
2013,07,01,02,41,17.90
2013,07,01,02,42,17.90
2013,07,01,02,43,17.90
2013,07,01,02,44,17.90
2013,07,01,02,45,17.90
2013,07,01,02,46,17.90
2013,07,01,02,47,17.90
2013,07,01,02,48,17.90
2013,07,01,02,49,17.90
2013,07,01,02,50,17.90
2013,07,01,02,51,17.90
2013,07,01,02,52,17.90
2013,07,01,02,53,17.80
2013,07,01,02,54,17.80
2013,07,01,02,55,17.80
2013,07,01,02,56,17.80
2013,07,01,02,57,17.80
2013,07,01,02,58,17.80
2013,07,01,02,59,17.80
2013,07,01,03,00,17.80
2013,07,01,03,01,17.80
2013,07,01,03,02,17.80
2013,07,01,03,03,17.80
2013,07,01,03,04,17.80
2013,07,01,03,05,17.80
2013,07,01,03,06,17.80
2013,07,01,03,07,17.80
2013,07,01,03,08,17.80
2013,07,01,03,09,17.80
2013,07,01,03,10,17.80
2013,07,01,03,11,17.90
2013,07,01,03,12,17.90
2013,07,01,03,13,17.90
2013,07,01,03,14,18.00
2013,07,01,03,15,18.00
2013,07,01,03,16,18.10
2013,07,01,03,17,18.10
2013,07,01,03,18,18.20
2013,07,01,03,19,18.20
2013,07,01,03,20,18.20
2013,07,01,03,21,18.20
2013,07,01,03,22,18.20
2013,07,01,03,23,18.30
2013,07,01,03,24,18.30
2013,07,01,03,25,18.30
2013,07,01,03,26,18.30
2013,07,01,03,27,18.30
2013,07,01,03,28,18.20
2013,07,01,03,29,18.20
2013,07,01,03,30,18.20
2013,07,01,03,31,18.20
2013,07,01,03,32,18.20
2013,07,01,03,33,18.20
2013,07,01,03,34,18.10
2013,07,01,03,35,18.10
2013,07,01,03,36,18.10
2013,07,01,03,37,18.10
2013,07,01,03,38,18.10
2013,07,01,03,39,18.00
2013,07,01,03,40,18.00
2013,07,01,03,41,18.00
2013,07,01,03,42,17.90
2013,07,01,03,43,17.90
2013,07,01,03,44,17.90
2013,07,01,03,45,17.90
2013,07,01,03,46,17.80
2013,07,01,03,47,17.80
2013,07,01,03,48,17.80
2013,07,01,03,49,17.80
2013,07,01,03,50,17.80
2013,07,01,03,51,17.70
2013,07,01,03,52,17.70
2013,07,01,03,53,17.70
2013,07,01,03,54,17.70
2013,07,01,03,55,17.70
2013,07,01,03,56,17.70
2013,07,01,03,57,17.60
2013,07,01,03,58,17.60
2013,07,01,03,59,17.60
2013,07,01,04,00,17.60
2013,07,01,04,01,17.60
2013,07,01,04,02,17.60
2013,07,01,04,03,17.60
2013,07,01,04,04,17.50
2013,07,01,04,05,17.50
2013,07,01,04,06,17.50
2013,07,01,04,07,17.50
2013,07,01,04,08,17.40
2013,07,01,04,09,17.40
2013,07,01,04,10,17.40
2013,07,01,04,11,17.40
2013,07,01,04,12,17.40
2013,07,01,04,13,17.40
2013,07,01,04,14,17.40
2013,07,01,04,15,17.40
2013,07,01,04,16,17.40
2013,07,01,04,17,17.40
2013,07,01,04,18,17.40
2013,07,01,04,19,17.30
2013,07,01,04,20,17.30
2013,07,01,04,21,17.30
2013,07,01,04,22,17.30
2013,07,01,04,23,17.30
2013,07,01,04,24,17.20
2013,07,01,04,25,17.20
2013,07,01,04,26,17.20
2013,07,01,04,27,17.20
2013,07,01,04,28,17.20
2013,07,01,04,29,17.20
2013,07,01,04,30,17.20
2013,07,01,04,31,17.10
2013,07,01,04,32,17.10
2013,07,01,04,33,17.10
2013,07,01,04,34,17.10
2013,07,01,04,35,17.10
2013,07,01,04,36,17.10
2013,07,01,04,37,17.10
2013,07,01,04,38,17.10
2013,07,01,04,39,17.00
2013,07,01,04,40,17.00
2013,07,01,04,41,17.00
2013,07,01,04,42,17.00
2013,07,01,04,43,17.00
2013,07,01,04,44,16.90
2013,07,01,04,45,16.90
2013,07,01,04,46,16.90
2013,07,01,04,47,16.90
2013,07,01,04,48,16.90
2013,07,01,04,49,16.90
2013,07,01,04,50,16.90
2013,07,01,04,51,16.90
2013,07,01,04,52,16.90
2013,07,01,04,53,16.90
2013,07,01,04,54,16.90
2013,07,01,04,55,16.90
2013,07,01,04,56,16.80
2013,07,01,04,57,16.80
2013,07,01,04,58,16.80
2013,07,01,04,59,16.80
2013,07,01,05,00,16.80
2013,07,01,05,01,16.80
2013,07,01,05,02,16.80
2013,07,01,05,03,16.80
2013,07,01,05,04,16.80
2013,07,01,05,05,16.80
2013,07,01,05,06,16.80
2013,07,01,05,07,16.80
2013,07,01,05,08,16.80
2013,07,01,05,09,16.80
2013,07,01,05,10,16.80
2013,07,01,05,11,16.70
2013,07,01,05,12,16.70
2013,07,01,05,13,16.70
2013,07,01,05,14,16.80
2013,07,01,05,15,16.80
2013,07,01,05,16,16.80
2013,07,01,05,17,16.80
2013,07,01,05,18,16.80
2013,07,01,05,19,16.80
2013,07,01,05,20,16.70
2013,07,01,05,21,16.80
2013,07,01,05,22,16.70
2013,07,01,05,23,16.70
2013,07,01,05,24,16.70
2013,07,01,05,25,16.70
2013,07,01,05,26,16.70
2013,07,01,05,27,16.70
2013,07,01,05,28,16.70
2013,07,01,05,29,16.70
2013,07,01,05,30,16.70
2013,07,01,05,31,16.70
2013,07,01,05,32,16.60
2013,07,01,05,33,16.60
2013,07,01,05,34,16.60
2013,07,01,05,35,16.60
2013,07,01,05,36,16.60
2013,07,01,05,37,16.60
2013,07,01,05,38,16.60
2013,07,01,05,39,16.60
2013,07,01,05,40,16.60
2013,07,01,05,41,16.70
2013,07,01,05,42,16.60
2013,07,01,05,43,16.60
2013,07,01,05,44,16.60
2013,07,01,05,45,16.60
2013,07,01,05,46,16.60
2013,07,01,05,47,16.70
2013,07,01,05,48,16.70
2013,07,01,05,49,16.70
2013,07,01,05,50,16.70
2013,07,01,05,51,16.70
2013,07,01,05,52,16.70
2013,07,01,05,53,16.70
2013,07,01,05,54,16.70
2013,07,01,05,55,16.70
2013,07,01,05,56,16.70
2013,07,01,05,57,16.80
2013,07,01,05,58,16.80
2013,07,01,05,59,16.80
2013,07,01,06,00,16.80
2013,07,01,06,01,16.90
2013,07,01,06,02,16.90
2013,07,01,06,03,17.00
2013,07,01,06,04,17.10
2013,07,01,06,05,17.20
2013,07,01,06,06,17.30
2013,07,01,06,07,17.30
2013,07,01,06,08,17.40
2013,07,01,06,09,17.50
2013,07,01,06,10,17.60
2013,07,01,06,11,17.60
2013,07,01,06,12,17.70
2013,07,01,06,13,17.80
2013,07,01,06,14,17.90
2013,07,01,06,15,18.00
2013,07,01,06,16,18.00
2013,07,01,06,17,18.10
2013,07,01,06,18,18.20
2013,07,01,06,19,18.20
2013,07,01,06,20,18.30
2013,07,01,06,21,18.30
2013,07,01,06,22,18.40
2013,07,01,06,23,18.40
2013,07,01,06,24,18.40
2013,07,01,06,25,18.40
2013,07,01,06,26,18.50
2013,07,01,06,27,18.50
2013,07,01,06,28,18.60
2013,07,01,06,29,18.60
2013,07,01,06,30,18.60
2013,07,01,06,31,18.60
2013,07,01,06,32,18.70
2013,07,01,06,33,18.70
2013,07,01,06,34,18.70
2013,07,01,06,35,18.70
2013,07,01,06,36,18.70
2013,07,01,06,37,18.60
2013,07,01,06,38,18.60
2013,07,01,06,39,18.60
2013,07,01,06,40,18.70
2013,07,01,06,41,18.70
2013,07,01,06,42,18.70
2013,07,01,06,43,18.80
2013,07,01,06,44,18.80
2013,07,01,06,45,18.90
2013,07,01,06,46,18.90
2013,07,01,06,47,19.00
2013,07,01,06,48,19.00
2013,07,01,06,49,19.10
2013,07,01,06,50,19.10
2013,07,01,06,51,19.10
2013,07,01,06,52,19.20
2013,07,01,06,53,19.20
2013,07,01,06,54,19.30
2013,07,01,06,55,19.30
2013,07,01,06,56,19.30
2013,07,01,06,57,19.40
2013,07,01,06,58,19.40
2013,07,01,06,59,19.60
2013,07,01,07,00,19.70
2013,07,01,07,01,19.80
2013,07,01,07,02,19.90
2013,07,01,07,03,20.10
2013,07,01,07,04,20.20
2013,07,01,07,05,20.30
2013,07,01,07,06,20.40
2013,07,01,07,07,20.50
2013,07,01,07,08,20.60
2013,07,01,07,09,20.70
2013,07,01,07,10,20.70
2013,07,01,07,11,20.80
2013,07,01,07,12,20.80
2013,07,01,07,13,20.80
2013,07,01,07,14,20.80
2013,07,01,07,15,20.80
2013,07,01,07,16,20.80
2013,07,01,07,17,20.80
2013,07,01,07,18,20.80
2013,07,01,07,19,20.70
2013,07,01,07,20,20.70
2013,07,01,07,21,20.70
2013,07,01,07,22,20.70
2013,07,01,07,23,20.70
2013,07,01,07,24,20.70
2013,07,01,07,25,20.70
2013,07,01,07,26,20.70
2013,07,01,07,27,20.70
2013,07,01,07,28,20.70
2013,07,01,07,29,20.70
2013,07,01,07,30,20.70
2013,07,01,07,31,20.80
2013,07,01,07,32,20.90
2013,07,01,07,33,21.00
2013,07,01,07,34,21.00
2013,07,01,07,35,21.00
2013,07,01,07,36,21.00
2013,07,01,07,37,21.00
2013,07,01,07,38,21.10
2013,07,01,07,39,21.10
2013,07,01,07,40,21.20
2013,07,01,07,41,21.20
2013,07,01,07,42,21.30
2013,07,01,07,43,21.40
2013,07,01,07,44,21.60
2013,07,01,07,45,21.60
2013,07,01,07,46,21.70
2013,07,01,07,47,21.80
2013,07,01,07,48,21.90
2013,07,01,07,49,22.00
2013,07,01,07,50,22.00
2013,07,01,07,51,22.10
2013,07,01,07,52,22.10
2013,07,01,07,53,22.20
2013,07,01,07,54,22.20
2013,07,01,07,55,22.30
2013,07,01,07,56,22.40
2013,07,01,07,57,22.50
2013,07,01,07,58,22.60
2013,07,01,07,59,22.70
2013,07,01,08,00,22.80
2013,07,01,08,01,22.90
2013,07,01,08,02,23.00
2013,07,01,08,03,23.10
2013,07,01,08,04,23.20
2013,07,01,08,05,23.30
2013,07,01,08,06,23.30
2013,07,01,08,07,23.30
2013,07,01,08,08,23.30
2013,07,01,08,09,23.30
2013,07,01,08,10,23.30
2013,07,01,08,11,23.30
2013,07,01,08,12,23.30
2013,07,01,08,13,23.30
2013,07,01,08,14,23.30
2013,07,01,08,15,23.30
2013,07,01,08,16,23.30
2013,07,01,08,17,23.40
2013,07,01,08,18,23.40
2013,07,01,08,19,23.50
2013,07,01,08,20,23.50
2013,07,01,08,21,23.60
2013,07,01,08,22,23.60
2013,07,01,08,23,23.60
2013,07,01,08,24,23.70
2013,07,01,08,25,23.70
2013,07,01,08,26,23.70
2013,07,01,08,27,23.60
2013,07,01,08,28,23.60
2013,07,01,08,29,23.50
2013,07,01,08,30,23.40
2013,07,01,08,31,23.30
2013,07,01,08,32,23.20
2013,07,01,08,33,23.30
2013,07,01,08,34,23.30
2013,07,01,08,35,23.40
2013,07,01,08,36,23.50
2013,07,01,08,37,23.60
2013,07,01,08,38,23.70
2013,07,01,08,39,23.70
2013,07,01,08,40,23.70
2013,07,01,08,41,23.60
2013,07,01,08,42,23.60
2013,07,01,08,43,23.60
2013,07,01,08,44,23.60
2013,07,01,08,45,23.60
2013,07,01,08,46,23.60
2013,07,01,08,47,23.70
2013,07,01,08,48,23.70
2013,07,01,08,49,23.80
2013,07,01,08,50,23.80
2013,07,01,08,51,23.90
2013,07,01,08,52,23.90
2013,07,01,08,53,23.90
2013,07,01,08,54,23.90
2013,07,01,08,55,23.90
2013,07,01,08,56,23.80
2013,07,01,08,57,23.80
2013,07,01,08,58,23.80
2013,07,01,08,59,23.80
2013,07,01,09,00,23.90
2013,07,01,09,01,23.90
2013,07,01,09,02,24.00
2013,07,01,09,03,24.10
2013,07,01,09,04,24.10
2013,07,01,09,05,24.10
2013,07,01,09,06,24.10
2013,07,01,09,07,24.10
2013,07,01,09,08,24.10
2013,07,01,09,09,24.10
2013,07,01,09,10,24.10
2013,07,01,09,11,24.10
2013,07,01,09,12,24.10
2013,07,01,09,13,24.10
2013,07,01,09,14,24.10
2013,07,01,09,15,24.10
2013,07,01,09,16,24.20
2013,07,01,09,17,24.20
2013,07,01,09,18,24.20
2013,07,01,09,19,24.20
2013,07,01,09,20,24.30
2013,07,01,09,21,24.30
2013,07,01,09,22,24.30
2013,07,01,09,23,24.30
2013,07,01,09,24,24.30
2013,07,01,09,25,24.40
2013,07,01,09,26,24.40
2013,07,01,09,27,24.50
2013,07,01,09,28,24.60
2013,07,01,09,29,24.70
2013,07,01,09,30,24.80
2013,07,01,09,31,24.90
2013,07,01,09,32,25.00
2013,07,01,09,33,25.00
2013,07,01,09,34,25.00
2013,07,01,09,35,25.00
2013,07,01,09,36,24.90
2013,07,01,09,37,24.90
2013,07,01,09,38,24.80
2013,07,01,09,39,24.80
2013,07,01,09,40,24.80
2013,07,01,09,41,24.90
2013,07,01,09,42,24.90
2013,07,01,09,43,24.90
2013,07,01,09,44,24.90
2013,07,01,09,45,24.90
2013,07,01,09,46,24.90
2013,07,01,09,47,25.00
2013,07,01,09,48,25.10
2013,07,01,09,49,25.10
2013,07,01,09,50,25.20
2013,07,01,09,51,25.10
2013,07,01,09,52,25.10
2013,07,01,09,53,25.10
2013,07,01,09,54,25.10
2013,07,01,09,55,25.10
2013,07,01,09,56,25.00
2013,07,01,09,57,25.00
2013,07,01,09,58,25.00
2013,07,01,09,59,25.00
2013,07,01,10,00,25.00
2013,07,01,10,01,25.00
2013,07,01,10,02,24.90
2013,07,01,10,03,25.00
2013,07,01,10,04,25.10
2013,07,01,10,05,25.10
2013,07,01,10,06,25.20
2013,07,01,10,07,25.10
2013,07,01,10,08,25.10
2013,07,01,10,09,25.00
2013,07,01,10,10,24.90
2013,07,01,10,11,24.80
2013,07,01,10,12,24.70
2013,07,01,10,13,24.80
2013,07,01,10,14,24.80
2013,07,01,10,15,24.70
2013,07,01,10,16,24.60
2013,07,01,10,17,24.60
2013,07,01,10,18,24.50
2013,07,01,10,19,24.40
2013,07,01,10,20,24.30
2013,07,01,10,21,24.20
2013,07,01,10,22,24.20
2013,07,01,10,23,24.20
2013,07,01,10,24,24.30
2013,07,01,10,25,24.40
2013,07,01,10,26,24.60
2013,07,01,10,27,24.60
2013,07,01,10,28,24.70
2013,07,01,10,29,24.70
2013,07,01,10,30,24.70
2013,07,01,10,31,24.80
2013,07,01,10,32,24.90
2013,07,01,10,33,24.80
2013,07,01,10,34,24.70
2013,07,01,10,35,24.60
2013,07,01,10,36,24.50
2013,07,01,10,37,24.50
2013,07,01,10,38,24.60
2013,07,01,10,39,24.70
2013,07,01,10,40,24.80
2013,07,01,10,41,24.70
2013,07,01,10,42,24.60
2013,07,01,10,43,24.60
2013,07,01,10,44,24.70
2013,07,01,10,45,24.80
2013,07,01,10,46,24.70
2013,07,01,10,47,24.70
2013,07,01,10,48,24.70
2013,07,01,10,49,24.70
2013,07,01,10,50,24.70
2013,07,01,10,51,24.80
2013,07,01,10,52,24.90
2013,07,01,10,53,25.10
2013,07,01,10,54,25.00
2013,07,01,10,55,24.80
2013,07,01,10,56,24.70
2013,07,01,10,57,24.50
2013,07,01,10,58,24.60
2013,07,01,10,59,24.70
2013,07,01,11,00,24.70
2013,07,01,11,01,24.80
2013,07,01,11,02,24.90
2013,07,01,11,03,24.90
2013,07,01,11,04,25.00
2013,07,01,11,05,25.00
2013,07,01,11,06,25.10
2013,07,01,11,07,25.20
2013,07,01,11,08,25.30
2013,07,01,11,09,25.40
2013,07,01,11,10,25.50
2013,07,01,11,11,25.50
2013,07,01,11,12,25.50
2013,07,01,11,13,25.40
2013,07,01,11,14,25.30
2013,07,01,11,15,25.30
2013,07,01,11,16,25.20
2013,07,01,11,17,25.20
2013,07,01,11,18,25.20
2013,07,01,11,19,25.10
2013,07,01,11,20,25.20
2013,07,01,11,21,25.30
2013,07,01,11,22,25.50
2013,07,01,11,23,25.50
2013,07,01,11,24,25.60
2013,07,01,11,25,25.50
2013,07,01,11,26,25.60
2013,07,01,11,27,25.70
2013,07,01,11,28,25.80
2013,07,01,11,29,25.80
2013,07,01,11,30,25.60
2013,07,01,11,31,25.50
2013,07,01,11,32,25.30
2013,07,01,11,33,25.20
2013,07,01,11,34,25.50
2013,07,01,11,35,25.80
2013,07,01,11,36,26.00
2013,07,01,11,37,26.10
2013,07,01,11,38,26.10
2013,07,01,11,39,26.10
2013,07,01,11,40,26.00
2013,07,01,11,41,25.90
2013,07,01,11,42,25.80
2013,07,01,11,43,25.80
2013,07,01,11,44,25.80
2013,07,01,11,45,25.80
2013,07,01,11,46,25.80
2013,07,01,11,47,25.90
2013,07,01,11,48,25.90
2013,07,01,11,49,25.90
2013,07,01,11,50,26.00
2013,07,01,11,51,26.00
2013,07,01,11,52,26.10
2013,07,01,11,53,26.00
2013,07,01,11,54,26.10
2013,07,01,11,55,26.00
2013,07,01,11,56,25.90
2013,07,01,11,57,25.90
2013,07,01,11,58,25.80
2013,07,01,11,59,25.70
2013,07,01,12,00,25.70
2013,07,01,12,01,25.70
2013,07,01,12,02,25.80
2013,07,01,12,03,26.00
2013,07,01,12,04,26.10
2013,07,01,12,05,26.00
2013,07,01,12,06,25.80
2013,07,01,12,07,25.80
2013,07,01,12,08,25.80
2013,07,01,12,09,25.70
2013,07,01,12,10,25.60
2013,07,01,12,11,25.60
2013,07,01,12,12,25.70
2013,07,01,12,13,25.70
2013,07,01,12,14,25.80
2013,07,01,12,15,25.80
2013,07,01,12,16,25.80
2013,07,01,12,17,25.80
2013,07,01,12,18,25.90
2013,07,01,12,19,26.10
2013,07,01,12,20,26.20
2013,07,01,12,21,26.30
2013,07,01,12,22,26.40
2013,07,01,12,23,26.50
2013,07,01,12,24,26.50
2013,07,01,12,25,26.50
2013,07,01,12,26,26.40
2013,07,01,12,27,26.30
2013,07,01,12,28,26.20
2013,07,01,12,29,26.10
2013,07,01,12,30,26.00
2013,07,01,12,31,25.90
2013,07,01,12,32,25.80
2013,07,01,12,33,25.80
2013,07,01,12,34,25.90
2013,07,01,12,35,26.10
2013,07,01,12,36,26.10
2013,07,01,12,37,26.10
2013,07,01,12,38,26.00
2013,07,01,12,39,25.70
2013,07,01,12,40,25.50
2013,07,01,12,41,25.50
2013,07,01,12,42,25.60
2013,07,01,12,43,25.60
2013,07,01,12,44,25.60
2013,07,01,12,45,25.60
2013,07,01,12,46,25.50
2013,07,01,12,47,25.50
2013,07,01,12,48,25.50
2013,07,01,12,49,25.50
2013,07,01,12,50,25.40
2013,07,01,12,51,25.20
2013,07,01,12,52,25.20
2013,07,01,12,53,25.20
2013,07,01,12,54,25.20
2013,07,01,12,55,25.30
2013,07,01,12,56,25.30
2013,07,01,12,57,25.30
2013,07,01,12,58,25.30
2013,07,01,12,59,25.20
2013,07,01,13,00,25.20
2013,07,01,13,01,25.20
2013,07,01,13,02,25.20
2013,07,01,13,03,25.20
2013,07,01,13,04,25.20
2013,07,01,13,05,25.20
2013,07,01,13,06,25.40
2013,07,01,13,07,25.50
2013,07,01,13,08,25.60
2013,07,01,13,09,25.60
2013,07,01,13,10,25.60
2013,07,01,13,11,25.50
2013,07,01,13,12,25.60
2013,07,01,13,13,25.60
2013,07,01,13,14,25.60
2013,07,01,13,15,25.60
2013,07,01,13,16,25.50
2013,07,01,13,17,25.50
2013,07,01,13,18,25.60
2013,07,01,13,19,25.60
2013,07,01,13,20,25.70
2013,07,01,13,21,25.80
2013,07,01,13,22,25.90
2013,07,01,13,23,26.00
2013,07,01,13,24,26.10
2013,07,01,13,25,26.10
2013,07,01,13,26,26.20
2013,07,01,13,27,26.20
2013,07,01,13,28,26.20
2013,07,01,13,29,26.10
2013,07,01,13,30,26.00
2013,07,01,13,31,26.00
2013,07,01,13,32,25.90
2013,07,01,13,33,25.90
2013,07,01,13,34,25.80
2013,07,01,13,35,25.80
2013,07,01,13,36,26.00
2013,07,01,13,37,26.10
2013,07,01,13,38,26.20
2013,07,01,13,39,26.40
2013,07,01,13,40,26.50
2013,07,01,13,41,26.70
2013,07,01,13,42,26.60
2013,07,01,13,43,26.50
2013,07,01,13,44,26.50
2013,07,01,13,45,26.50
2013,07,01,13,46,26.40
2013,07,01,13,47,26.40
2013,07,01,13,48,26.50
2013,07,01,13,49,26.50
2013,07,01,13,50,26.40
2013,07,01,13,51,26.40
2013,07,01,13,52,26.30
2013,07,01,13,53,26.20
2013,07,01,13,54,26.20
2013,07,01,13,55,26.20
2013,07,01,13,56,26.20
2013,07,01,13,57,26.30
2013,07,01,13,58,26.30
2013,07,01,13,59,26.30
2013,07,01,14,00,26.30
2013,07,01,14,01,26.40
2013,07,01,14,02,26.50
2013,07,01,14,03,26.40
2013,07,01,14,04,26.30
2013,07,01,14,05,26.20
2013,07,01,14,06,26.30
2013,07,01,14,07,26.30
2013,07,01,14,08,26.20
2013,07,01,14,09,25.90
2013,07,01,14,10,25.80
2013,07,01,14,11,25.70
2013,07,01,14,12,25.70
2013,07,01,14,13,25.80
2013,07,01,14,14,25.90
2013,07,01,14,15,26.00
2013,07,01,14,16,26.00
2013,07,01,14,17,26.10
2013,07,01,14,18,26.10
2013,07,01,14,19,26.10
2013,07,01,14,20,26.00
2013,07,01,14,21,25.90
2013,07,01,14,22,25.80
2013,07,01,14,23,25.80
2013,07,01,14,24,25.80
2013,07,01,14,25,25.80
2013,07,01,14,26,25.80
2013,07,01,14,27,25.80
2013,07,01,14,28,25.80
2013,07,01,14,29,25.90
2013,07,01,14,30,26.10
2013,07,01,14,31,26.10
2013,07,01,14,32,26.20
2013,07,01,14,33,26.20
2013,07,01,14,34,26.20
2013,07,01,14,35,26.10
2013,07,01,14,36,26.00
2013,07,01,14,37,25.90
2013,07,01,14,38,25.90
2013,07,01,14,39,26.00
2013,07,01,14,40,26.10
2013,07,01,14,41,26.10
2013,07,01,14,42,26.20
2013,07,01,14,43,26.30
2013,07,01,14,44,26.30
2013,07,01,14,45,26.20
2013,07,01,14,46,26.10
2013,07,01,14,47,26.00
2013,07,01,14,48,26.00
2013,07,01,14,49,25.90
2013,07,01,14,50,25.80
2013,07,01,14,51,25.80
2013,07,01,14,52,25.80
2013,07,01,14,53,25.90
2013,07,01,14,54,25.90
2013,07,01,14,55,25.90
2013,07,01,14,56,26.00
2013,07,01,14,57,26.00
2013,07,01,14,58,25.90
2013,07,01,14,59,25.80
2013,07,01,15,00,25.90
2013,07,01,15,01,26.00
2013,07,01,15,02,26.00
2013,07,01,15,03,26.00
2013,07,01,15,04,26.00
2013,07,01,15,05,26.10
2013,07,01,15,06,26.20
2013,07,01,15,07,26.30
2013,07,01,15,08,26.30
2013,07,01,15,09,26.40
2013,07,01,15,10,26.40
2013,07,01,15,11,26.40
2013,07,01,15,12,26.40
2013,07,01,15,13,26.40
2013,07,01,15,14,26.50
2013,07,01,15,15,26.50
2013,07,01,15,16,26.60
2013,07,01,15,17,26.60
2013,07,01,15,18,26.60
2013,07,01,15,19,26.60
2013,07,01,15,20,26.70
2013,07,01,15,21,26.80
2013,07,01,15,22,26.80
2013,07,01,15,23,26.90
2013,07,01,15,24,27.00
2013,07,01,15,25,27.10
2013,07,01,15,26,27.20
2013,07,01,15,27,27.30
2013,07,01,15,28,27.40
2013,07,01,15,29,27.50
2013,07,01,15,30,27.50
2013,07,01,15,31,27.50
2013,07,01,15,32,27.50
2013,07,01,15,33,27.50
2013,07,01,15,34,27.50
2013,07,01,15,35,27.50
2013,07,01,15,36,27.60
2013,07,01,15,37,27.70
2013,07,01,15,38,27.80
2013,07,01,15,39,27.80
2013,07,01,15,40,27.80
2013,07,01,15,41,27.90
2013,07,01,15,42,28.00
2013,07,01,15,43,28.10
2013,07,01,15,44,28.00
2013,07,01,15,45,27.90
2013,07,01,15,46,27.90
2013,07,01,15,47,28.00
2013,07,01,15,48,28.10
2013,07,01,15,49,28.10
2013,07,01,15,50,28.10
2013,07,01,15,51,28.10
2013,07,01,15,52,28.20
2013,07,01,15,53,28.30
2013,07,01,15,54,28.40
2013,07,01,15,55,28.50
2013,07,01,15,56,28.60
2013,07,01,15,57,28.70
2013,07,01,15,58,28.70
2013,07,01,15,59,28.80
2013,07,01,16,00,28.90
2013,07,01,16,01,28.90
2013,07,01,16,02,29.00
2013,07,01,16,03,29.20
2013,07,01,16,04,29.30
2013,07,01,16,05,29.30
2013,07,01,16,06,29.30
2013,07,01,16,07,29.40
2013,07,01,16,08,29.50
2013,07,01,16,09,29.50
2013,07,01,16,10,29.60
2013,07,01,16,11,29.60
2013,07,01,16,12,29.60
2013,07,01,16,13,29.50
2013,07,01,16,14,29.30
2013,07,01,16,15,29.10
2013,07,01,16,16,29.00
2013,07,01,16,17,28.90
2013,07,01,16,18,28.90
2013,07,01,16,19,28.90
2013,07,01,16,20,28.80
2013,07,01,16,21,28.80
2013,07,01,16,22,28.90
2013,07,01,16,23,28.90
2013,07,01,16,24,28.90
2013,07,01,16,25,28.90
2013,07,01,16,26,28.90
2013,07,01,16,27,28.90
2013,07,01,16,28,28.70
2013,07,01,16,29,28.60
2013,07,01,16,30,28.50
2013,07,01,16,31,28.30
2013,07,01,16,32,28.30
2013,07,01,16,33,28.30
2013,07,01,16,34,28.30
2013,07,01,16,35,28.30
2013,07,01,16,36,28.30
2013,07,01,16,37,28.40
2013,07,01,16,38,28.50
2013,07,01,16,39,28.60
2013,07,01,16,40,28.70
2013,07,01,16,41,28.90
2013,07,01,16,42,29.10
2013,07,01,16,43,29.20
2013,07,01,16,44,29.30
2013,07,01,16,45,29.30
2013,07,01,16,46,29.40
2013,07,01,16,47,29.40
2013,07,01,16,48,29.40
2013,07,01,16,49,29.40
2013,07,01,16,50,29.40
2013,07,01,16,51,29.30
2013,07,01,16,52,29.40
2013,07,01,16,53,29.50
2013,07,01,16,54,29.50
2013,07,01,16,55,29.60
2013,07,01,16,56,29.60
2013,07,01,16,57,29.50
2013,07,01,16,58,29.40
2013,07,01,16,59,29.30
2013,07,01,17,00,29.30
2013,07,01,17,01,29.30
2013,07,01,17,02,29.40
2013,07,01,17,03,29.40
2013,07,01,17,04,29.50
2013,07,01,17,05,29.50
2013,07,01,17,06,29.50
2013,07,01,17,07,29.50
2013,07,01,17,08,29.50
2013,07,01,17,09,29.60
2013,07,01,17,10,29.70
2013,07,01,17,11,29.80
2013,07,01,17,12,29.90
2013,07,01,17,13,30.00
2013,07,01,17,14,29.90
2013,07,01,17,15,29.90
2013,07,01,17,16,30.00
2013,07,01,17,17,30.00
2013,07,01,17,18,30.10
2013,07,01,17,19,30.10